| time (UTC) | temp C | wind direction | speed KPH | gust KPH | rain 1hr cm | rain 24hr cm | rain mn cm | humidity % | barometer mb |
| 20260510172025 | 26 | 0 | 0.0 | 11.3 | 0.00 | 0.00 | 0.00 | 46 | 1013.4 |
| 20260510171825 | 26 | 62 | 0.0 | 11.3 | 0.00 | 0.00 | 0.00 | 47 | 1013.1 |
| 20260510171540 | 26 | 270 | 0.0 | 11.3 | 0.00 | 0.00 | 0.00 | 44 | 1013.5 |
| 20260510171329 | 26 | 2 | 3.2 | 11.3 | 0.00 | 0.00 | 0.00 | 45 | 1013.2 |
| 20260510171022 | 26 | 195 | 0.0 | 6.4 | 0.00 | 0.00 | 0.00 | 47 | 1013.4 |
| 20260510170853 | 26 | 36 | 0.0 | 6.4 | 0.00 | 0.00 | 0.00 | 47 | 1013.1 |
| 20260510170523 | 26 | 0 | 0.0 | 9.7 | 0.00 | 0.00 | 0.00 | 49 | 1013.5 |
| 20260510170316 | 26 | 254 | 1.6 | 11.3 | 0.00 | 0.00 | 0.00 | 45 | 1013.2 |
| 20260510170038 | 26 | 0 | 0.0 | 9.7 | 0.00 | 0.00 | 0.00 | 46 | 1013.5 |
| 20260510165820 | 26 | 142 | 0.0 | 11.3 | 0.00 | 0.00 | 0.00 | 48 | 1013.2 |
| 20260510165525 | 26 | 49 | 1.6 | 9.7 | 0.00 | 0.00 | 0.00 | 49 | 1013.6 |
| 20260510165347 | 26 | 186 | 0.0 | 8.0 | 0.00 | 0.00 | 0.00 | 48 | 1013.2 |
| 20260510165023 | 26 | 193 | 0.0 | 14.5 | 0.00 | 0.00 | 0.00 | 45 | 1013.5 |
| 20260510164832 | 26 | 185 | 0.0 | 14.5 | 0.00 | 0.00 | 0.00 | 47 | 1013.1 |
| 20260510164540 | 26 | 0 | 3.2 | 14.5 | 0.00 | 0.00 | 0.00 | 46 | 1013.6 |
| 20260510164315 | 26 | 360 | 3.2 | 11.3 | 0.00 | 0.00 | 0.00 | 48 | 1013.2 |
| 20260510164024 | 26 | 302 | 3.2 | 8.0 | 0.00 | 0.00 | 0.00 | 46 | 1013.7 |
| 20260510163843 | 26 | 8 | 1.6 | 8.0 | 0.00 | 0.00 | 0.00 | 47 | 1013.3 |
| 20260510163529 | 26 | 33 | 1.6 | 8.0 | 0.00 | 0.00 | 0.00 | 50 | 1013.7 |
| 20260510163330 | 26 | 7 | 3.2 | 8.0 | 0.00 | 0.00 | 0.00 | 50 | 1013.3 |
| 20260510163038 | 25 | 118 | 0.0 | 8.0 | 0.00 | 0.00 | 0.00 | 50 | 1013.6 |
| 20260510162835 | 25 | 163 | 0.0 | 8.0 | 0.00 | 0.00 | 0.00 | 54 | 1013.2 |
| 20260510162526 | 25 | 0 | 0.0 | 8.0 | 0.00 | 0.00 | 0.00 | 50 | 1013.8 |
| 20260510162338 | 25 | 164 | 0.0 | 8.0 | 0.00 | 0.00 | 0.00 | 50 | 1013.3 |
| 20260510162022 | 25 | 0 | 0.0 | 12.9 | 0.00 | 0.00 | 0.00 | 53 | 1013.8 |
| 20260510161826 | 25 | 187 | 0.0 | 11.3 | 0.00 | 0.00 | 0.00 | 49 | 1013.4 |
| 20260510161537 | 25 | 0 | 0.0 | 12.9 | 0.00 | 0.00 | 0.00 | 50 | 1013.8 |
| 20260510161330 | 25 | 195 | 0.0 | 11.3 | 0.00 | 0.00 | 0.00 | 52 | 1013.4 |
| 20260510161026 | 25 | 220 | 0.0 | 8.0 | 0.00 | 0.00 | 0.00 | 53 | 1013.8 |
| 20260510160818 | 25 | 93 | 0.0 | 8.0 | 0.00 | 0.00 | 0.00 | 52 | 1013.3 |
| 20260510160523 | 25 | 112 | 0.0 | 8.0 | 0.00 | 0.00 | 0.00 | 51 | 1013.7 |
| 20260510160322 | 25 | 166 | 0.0 | 6.4 | 0.00 | 0.00 | 0.00 | 51 | 1013.4 |
| 20260510160043 | 25 | 0 | 1.6 | 6.4 | 0.00 | 0.00 | 0.00 | 53 | 1013.7 |
| 20260510155847 | 25 | 86 | 1.6 | 6.4 | 0.00 | 0.00 | 0.00 | 52 | 1013.4 |
| 20260510155526 | 25 | 0 | 0.0 | 9.7 | 0.00 | 0.00 | 0.00 | 52 | 1013.8 |
| 20260510155330 | 25 | 13 | 0.0 | 8.0 | 0.00 | 0.00 | 0.00 | 51 | 1013.4 |
| 20260510155022 | 25 | 37 | 1.6 | 9.7 | 0.00 | 0.00 | 0.00 | 50 | 1013.9 |
| 20260510154835 | 25 | 197 | 1.6 | 8.0 | 0.00 | 0.00 | 0.00 | 53 | 1013.6 |
| 20260510154540 | 24 | 228 | 0.0 | 9.7 | 0.00 | 0.00 | 0.00 | 52 | 1013.9 |
| 20260510154319 | 25 | 202 | 0.0 | 8.0 | 0.00 | 0.00 | 0.00 | 50 | 1013.5 |
| 20260510154025 | 25 | 226 | 0.0 | 9.7 | 0.00 | 0.00 | 0.00 | 51 | 1013.9 |
| 20260510153826 | 25 | 200 | 0.0 | 8.0 | 0.00 | 0.00 | 0.00 | 54 | 1013.4 |
| 20260510153528 | 24 | 0 | 1.6 | 11.3 | 0.00 | 0.00 | 0.00 | 51 | 1013.9 |
| 20260510153332 | 24 | 176 | 0.0 | 9.7 | 0.00 | 0.00 | 0.00 | 53 | 1013.5 |
| 20260510153039 | 24 | 0 | 0.0 | 11.3 | 0.00 | 0.00 | 0.00 | 52 | 1013.8 |
| 20260510152837 | 24 | 169 | 0.0 | 9.7 | 0.00 | 0.00 | 0.00 | 54 | 1013.4 |
| 20260510152525 | 23 | 193 | 0.0 | 11.3 | 0.00 | 0.00 | 0.00 | 53 | 1013.8 |
| 20260510152320 | 24 | 63 | 0.0 | 3.2 | 0.00 | 0.00 | 0.00 | 54 | 1013.4 |
| 20260510152024 | 23 | 0 | 0.0 | 9.7 | 0.00 | 0.00 | 0.00 | 57 | 1013.9 |
| 20260510151831 | 23 | 61 | 0.0 | 11.3 | 0.00 | 0.00 | 0.00 | 57 | 1013.4 |
| 20260510151540 | 23 | 0 | 0.0 | 9.7 | 0.00 | 0.00 | 0.00 | 55 | 1013.9 |
| 20260510151318 | 23 | 260 | 1.6 | 11.3 | 0.00 | 0.00 | 0.00 | 56 | 1013.5 |
| 20260510151025 | 22 | 0 | 0.0 | 8.0 | 0.00 | 0.00 | 0.00 | 58 | 1013.9 |
| 20260510150825 | 22 | 260 | 1.6 | 6.4 | 0.00 | 0.00 | 0.00 | 59 | 1013.5 |
| 20260510150525 | 22 | 0 | 0.0 | 8.0 | 0.00 | 0.00 | 0.00 | 57 | 1014.0 |
| 20260510150330 | 22 | 236 | 0.0 | 8.0 | 0.00 | 0.00 | 0.00 | 58 | 1013.6 |
| 20260510150043 | 22 | 310 | 1.6 | 8.0 | 0.00 | 0.00 | 0.00 | 59 | 1014.0 |
| 20260510145817 | 22 | 260 | 1.6 | 8.0 | 0.00 | 0.00 | 0.00 | 60 | 1013.5 |
| 20260510145524 | 22 | 336 | 0.0 | 8.0 | 0.00 | 0.00 | 0.00 | 60 | 1014.0 |
| 20260510145324 | 22 | 182 | 0.0 | 4.8 | 0.00 | 0.00 | 0.00 | 58 | 1013.4 |
| 20260510145027 | 22 | 0 | 0.0 | 4.8 | 0.00 | 0.00 | 0.00 | 59 | 1013.8 |
| 20260510144832 | 22 | 158 | 0.0 | 1.6 | 0.00 | 0.00 | 0.00 | 57 | 1013.4 |
| 20260510144551 | 22 | 0 | 0.0 | 3.2 | 0.00 | 0.00 | 0.00 | 59 | 1013.8 |
| 20260510144316 | 22 | 21 | 0.0 | 3.2 | 0.00 | 0.00 | 0.00 | 58 | 1013.3 |
| 20260510144026 | 22 | 0 | 0.0 | 3.2 | 0.00 | 0.00 | 0.00 | 56 | 1013.7 |
| 20260510143821 | 22 | 291 | 0.0 | 3.2 | 0.00 | 0.00 | 0.00 | 57 | 1013.2 |
| 20260510143524 | 22 | 276 | 0.0 | 6.4 | 0.00 | 0.00 | 0.00 | 58 | 1013.6 |
| 20260510143326 | 22 | 305 | 0.0 | 6.4 | 0.00 | 0.00 | 0.00 | 57 | 1013.1 |
| 20260510143049 | 21 | 0 | 0.0 | 6.4 | 0.00 | 0.00 | 0.00 | 59 | 1013.5 |
| 20260510142815 | 22 | 14 | 0.0 | 6.4 | 0.00 | 0.00 | 0.00 | 57 | 1013.1 |
| 20260510142525 | 21 | 345 | 0.0 | 0.0 | 0.00 | 0.00 | 0.00 | 62 | 1013.5 |
| 20260510142323 | 21 | 188 | 0.0 | 0.0 | 0.00 | 0.00 | 0.00 | 63 | 1013.0 |
| 20260510142025 | 21 | 0 | 0.0 | 1.6 | 0.00 | 0.00 | 0.00 | 67 | 1013.4 |
| 20260510141827 | 21 | 6 | 0.0 | 1.6 | 0.00 | 0.00 | 0.00 | 67 | 1013.0 |
| 20260510141537 | 21 | 0 | 0.0 | 1.6 | 0.00 | 0.00 | 0.00 | 66 | 1013.3 |
| 20260510141331 | 21 | 163 | 0.0 | 1.6 | 0.00 | 0.00 | 0.00 | 67 | 1013.0 |
| 20260510141028 | 20 | 0 | 0.0 | 0.0 | 0.00 | 0.00 | 0.00 | 66 | 1013.3 |
| 20260510140818 | 20 | 163 | 0.0 | 0.0 | 0.00 | 0.00 | 0.00 | 67 | 1012.9 |
| 20260510140526 | 20 | 0 | 0.0 | 3.2 | 0.00 | 0.00 | 0.00 | 66 | 1013.3 |
| 20260510140326 | 20 | 163 | 0.0 | 3.2 | 0.00 | 0.00 | 0.00 | 67 | 1013.0 |
| 20260510140042 | 20 | 0 | 0.0 | 3.2 | 0.00 | 0.00 | 0.00 | 70 | 1013.4 |
| 20260510135851 | 20 | 161 | 0.0 | 3.2 | 0.00 | 0.00 | 0.00 | 70 | 1013.1 |
| 20260510135525 | 19 | 0 | 0.0 | 0.0 | 0.00 | 0.00 | 0.00 | 72 | 1013.5 |
| 20260510135317 | 20 | 201 | 0.0 | 0.0 | 0.00 | 0.00 | 0.00 | 70 | 1013.1 |
| 20260510135025 | 19 | 0 | 0.0 | 0.0 | 0.00 | 0.00 | 0.00 | 69 | 1013.5 |
| 20260510134821 | 19 | 200 | 0.0 | 0.0 | 0.00 | 0.00 | 0.00 | 71 | 1013.1 |
| 20260510134545 | 18 | 0 | 0.0 | 0.0 | 0.00 | 0.00 | 0.00 | 72 | 1013.6 |
| 20260510134326 | 18 | 215 | 0.0 | 0.0 | 0.00 | 0.00 | 0.00 | 73 | 1013.2 |
| 20260510134024 | 18 | 0 | 0.0 | 0.0 | 0.00 | 0.00 | 0.00 | 74 | 1013.7 |
| 20260510133831 | 18 | 214 | 0.0 | 0.0 | 0.00 | 0.00 | 0.00 | 73 | 1013.2 |
| 20260510133526 | 18 | 0 | 0.0 | 0.0 | 0.00 | 0.00 | 0.00 | 74 | 1013.6 |
| 20260510133340 | 18 | 214 | 0.0 | 0.0 | 0.00 | 0.00 | 0.00 | 74 | 1013.2 |
| 20260510133038 | 17 | 0 | 0.0 | 0.0 | 0.00 | 0.00 | 0.00 | 75 | 1013.7 |
| 20260510132822 | 17 | 214 | 0.0 | 0.0 | 0.00 | 0.00 | 0.00 | 78 | 1013.3 |
| 20260510132525 | 17 | 0 | 0.0 | 0.0 | 0.00 | 0.00 | 0.00 | 82 | 1013.8 |
| 20260510132327 | 17 | 134 | 0.0 | 0.0 | 0.00 | 0.00 | 0.00 | 81 | 1013.3 |
| 20260510132025 | 17 | 0 | 0.0 | 0.0 | 0.00 | 0.00 | 0.00 | 80 | 1013.7 |
| 20260510131831 | 17 | 133 | 0.0 | 0.0 | 0.00 | 0.00 | 0.00 | 82 | 1013.2 |
| 20260510131543 | 16 | 0 | 0.0 | 0.0 | 0.00 | 0.00 | 0.00 | 82 | 1013.6 |
| 20260510131356 | 16 | 132 | 0.0 | 0.0 | 0.00 | 0.00 | 0.00 | 84 | 1013.2 |
| 20260510131025 | 16 | 0 | 0.0 | 0.0 | 0.00 | 0.00 | 0.00 | 84 | 1013.6 |
| 20260510130820 | 16 | 132 | 0.0 | 0.0 | 0.00 | 0.00 | 0.00 | 85 | 1013.3 |
| 20260510130525 | 15 | 0 | 0.0 | 0.0 | 0.00 | 0.00 | 0.00 | 84 | 1013.6 |
| 20260510130324 | 16 | 132 | 0.0 | 0.0 | 0.00 | 0.00 | 0.00 | 85 | 1013.2 |
| 20260510130044 | 15 | 0 | 0.0 | 0.0 | 0.00 | 0.00 | 0.00 | 87 | 1013.5 |
| 20260510125828 | 15 | 132 | 0.0 | 0.0 | 0.00 | 0.00 | 0.00 | 88 | 1013.2 |
| 20260510125525 | 15 | 0 | 0.0 | 0.0 | 0.00 | 0.00 | 0.00 | 88 | 1013.7 |
| 20260510125354 | 15 | 132 | 0.0 | 0.0 | 0.00 | 0.00 | 0.00 | 90 | 1013.2 |
| 20260510125028 | 14 | 0 | 0.0 | 0.0 | 0.00 | 0.00 | 0.00 | 91 | 1013.6 |
| 20260510124817 | 14 | 132 | 0.0 | 0.0 | 0.00 | 0.00 | 0.00 | 91 | 1013.2 |
| 20260510124543 | 13 | 0 | 0.0 | 0.0 | 0.00 | 0.00 | 0.00 | 92 | 1013.6 |
| 20260510124322 | 14 | 132 | 0.0 | 0.0 | 0.00 | 0.00 | 0.00 | 93 | 1013.3 |
| 20260510124025 | 13 | 0 | 0.0 | 0.0 | 0.00 | 0.00 | 0.00 | 93 | 1013.7 |
| 20260510123845 | 13 | 132 | 0.0 | 0.0 | 0.00 | 0.00 | 0.00 | 94 | 1013.5 |
| 20260510123525 | 13 | 0 | 0.0 | 0.0 | 0.00 | 0.00 | 0.00 | 94 | 1013.9 |
| 20260510123352 | 13 | 132 | 0.0 | 0.0 | 0.00 | 0.00 | 0.00 | 95 | 1013.5 |
| 20260510123037 | 13 | 0 | 0.0 | 0.0 | 0.00 | 0.00 | 0.00 | 95 | 1013.9 |
| 20260510122815 | 13 | 132 | 0.0 | 0.0 | 0.00 | 0.00 | 0.00 | 96 | 1013.4 |
| 20260510122525 | 12 | 0 | 0.0 | 0.0 | 0.00 | 0.00 | 0.00 | 96 | 1013.8 |
| 20260510122324 | 12 | 132 | 0.0 | 0.0 | 0.00 | 0.00 | 0.00 | 97 | 1013.4 |
| 20260510122025 | 12 | 0 | 0.0 | 0.0 | 0.00 | 0.00 | 0.00 | 96 | 1013.8 |
| 20260510121849 | 12 | 132 | 0.0 | 0.0 | 0.00 | 0.00 | 0.00 | 97 | 1013.4 |
| 20260510121538 | 12 | 0 | 0.0 | 0.0 | 0.00 | 0.00 | 0.00 | 96 | 1013.7 |
| 20260510121352 | 12 | 132 | 0.0 | 0.0 | 0.00 | 0.00 | 0.00 | 96 | 1013.4 |
| 20260510121026 | 12 | 0 | 0.0 | 0.0 | 0.00 | 0.00 | 0.00 | 96 | 1013.8 |
| 20260510120814 | 12 | 132 | 0.0 | 0.0 | 0.00 | 0.00 | 0.00 | 96 | 1013.5 |
| 20260510120529 | 11 | 0 | 0.0 | 0.0 | 0.00 | 0.00 | 0.00 | 96 | 1013.8 |
| 20260510120322 | 11 | 132 | 0.0 | 0.0 | 0.00 | 0.00 | 0.00 | 96 | 1013.4 |
| 20260510120046 | 11 | 0 | 0.0 | 0.0 | 0.00 | 0.00 | 0.00 | 96 | 1013.9 |
| 20260510115826 | 11 | 132 | 0.0 | 0.0 | 0.00 | 0.00 | 0.00 | 96 | 1013.5 |
| 20260510115525 | 11 | 0 | 0.0 | 0.0 | 0.00 | 0.00 | 0.00 | 96 | 1013.7 |
| 20260510115314 | 11 | 132 | 0.0 | 0.0 | 0.00 | 0.00 | 0.00 | 96 | 1013.4 |
| 20260510115027 | 11 | 0 | 0.0 | 0.0 | 0.00 | 0.00 | 0.00 | 96 | 1013.7 |
| 20260510114823 | 11 | 132 | 0.0 | 0.0 | 0.00 | 0.00 | 0.00 | 96 | 1013.3 |
| 20260510114543 | 11 | 0 | 0.0 | 0.0 | 0.00 | 0.00 | 0.00 | 96 | 1013.7 |
| 20260510114326 | 11 | 132 | 0.0 | 0.0 | 0.00 | 0.00 | 0.00 | 96 | 1013.3 |
| 20260510114026 | 10 | 0 | 0.0 | 0.0 | 0.00 | 0.00 | 0.00 | 95 | 1013.6 |
| 20260510113831 | 11 | 132 | 0.0 | 0.0 | 0.00 | 0.00 | 0.00 | 96 | 1013.2 |
| 20260510113525 | 10 | 0 | 0.0 | 0.0 | 0.00 | 0.00 | 0.00 | 95 | 1013.5 |
| 20260510113335 | 10 | 132 | 0.0 | 0.0 | 0.00 | 0.00 | 0.00 | 96 | 1013.1 |
| 20260510113040 | 10 | 0 | 0.0 | 0.0 | 0.00 | 0.00 | 0.00 | 95 | 1013.5 |
| 20260510112840 | 10 | 132 | 0.0 | 0.0 | 0.00 | 0.00 | 0.00 | 96 | 1013.0 |
| 20260510112525 | 10 | 0 | 0.0 | 0.0 | 0.00 | 0.00 | 0.00 | 95 | 1013.4 |
| 20260510112323 | 10 | 132 | 0.0 | 0.0 | 0.00 | 0.00 | 0.00 | 95 | 1012.9 |
| 20260510112025 | 10 | 0 | 0.0 | 0.0 | 0.00 | 0.00 | 0.00 | 95 | 1013.3 |
| 20260510111832 | 10 | 132 | 0.0 | 0.0 | 0.00 | 0.00 | 0.00 | 95 | 1012.9 |
| 20260510111551 | 9 | 0 | 0.0 | 0.0 | 0.00 | 0.00 | 0.00 | 94 | 1013.1 |
| 20260510111316 | 10 | 132 | 0.0 | 0.0 | 0.00 | 0.00 | 0.00 | 95 | 1012.8 |
| 20260510111024 | 9 | 0 | 0.0 | 0.0 | 0.00 | 0.00 | 0.00 | 94 | 1013.0 |
| 20260510110821 | 9 | 132 | 0.0 | 0.0 | 0.00 | 0.00 | 0.00 | 95 | 1012.6 |
| 20260510110525 | 9 | 0 | 0.0 | 0.0 | 0.00 | 0.00 | 0.00 | 94 | 1012.8 |
| 20260510110325 | 9 | 132 | 0.0 | 0.0 | 0.00 | 0.00 | 0.00 | 95 | 1012.5 |
| 20260510110038 | 9 | 0 | 0.0 | 0.0 | 0.00 | 0.00 | 0.00 | 94 | 1012.9 |
| 20260510105830 | 9 | 0.0 | 0.0 | 0.00 | 0.00 | 0.00 | 95 | 1012.5 | |
| 20260510105525 | 8 | 0.0 | 0.0 | 0.00 | 0.00 | 0.00 | 94 | 1012.7 | |
| 20260510105317 | 9 | 0.0 | 0.0 | 0.00 | 0.00 | 0.00 | 95 | 1012.4 | |
| 20260510105025 | 8 | 0.0 | 0.0 | 0.00 | 0.00 | 0.00 | 94 | 1012.7 | |
| 20260510104824 | 9 | 0.0 | 0.0 | 0.00 | 0.00 | 0.00 | 94 | 1012.3 | |
| 20260510104546 | 8 | 0.0 | 0.0 | 0.00 | 0.00 | 0.00 | 94 | 1012.6 | |
| 20260510104332 | 9 | 0.0 | 0.0 | 0.00 | 0.00 | 0.00 | 94 | 1012.3 | |
| 20260510104025 | 8 | 0.0 | 0.0 | 0.00 | 0.00 | 0.00 | 94 | 1012.5 | |
| 20260510103819 | 9 | 0.0 | 0.0 | 0.00 | 0.00 | 0.00 | 94 | 1012.2 | |
| 20260510103525 | 8 | 0.0 | 0.0 | 0.00 | 0.00 | 0.00 | 94 | 1012.4 | |
| 20260510103327 | 9 | 0.0 | 0.0 | 0.00 | 0.00 | 0.00 | 94 | 1012.1 | |
| 20260510103038 | 8 | 0.0 | 0.0 | 0.00 | 0.00 | 0.00 | 93 | 1012.2 | |
| 20260510102838 | 9 | 0.0 | 0.0 | 0.00 | 0.00 | 0.00 | 94 | 1011.9 | |
| 20260510102525 | 8 | 0.0 | 0.0 | 0.00 | 0.00 | 0.00 | 93 | 1012.0 | |
| 20260510102325 | 9 | 0.0 | 0.0 | 0.00 | 0.00 | 0.00 | 94 | 1011.8 | |
| 20260510102026 | 8 | 0.0 | 0.0 | 0.00 | 0.00 | 0.00 | 93 | 1012.0 | |
| 20260510101812 | 9 | 0.0 | 0.0 | 0.00 | 0.00 | 0.00 | 94 | 1011.7 | |
| 20260510101543 | 8 | 0.0 | 0.0 | 0.00 | 0.00 | 0.00 | 93 | 1011.9 | |
| 20260510101319 | 9 | 0.0 | 0.0 | 0.00 | 0.00 | 0.00 | 94 | 1011.7 | |
| 20260510101025 | 8 | 0.0 | 0.0 | 0.00 | 0.00 | 0.00 | 93 | 1011.9 | |
| 20260510100826 | 9 | 0.0 | 0.0 | 0.00 | 0.00 | 0.00 | 94 | 1011.7 | |
| 20260510100525 | 8 | 0.0 | 0.0 | 0.00 | 0.00 | 0.00 | 93 | 1011.9 | |
| 20260510100333 | 9 | 0.0 | 0.0 | 0.00 | 0.00 | 0.00 | 94 | 1011.6 | |
| 20260510100040 | 8 | 0.0 | 0.0 | 0.00 | 0.00 | 0.00 | 93 | 1011.8 | |
| 20260510095822 | 9 | 0.0 | 0.0 | 0.00 | 0.00 | 0.00 | 94 | 1011.6 | |
| 20260510095525 | 8 | 0.0 | 0.0 | 0.00 | 0.00 | 0.00 | 93 | 1011.8 | |
| 20260510095329 | 9 | 0.0 | 0.0 | 0.00 | 0.00 | 0.00 | 94 | 1011.4 | |
| 20260510095024 | 8 | 0.0 | 0.0 | 0.00 | 0.00 | 0.00 | 93 | 1011.6 | |
| 20260510094816 | 9 | 0.0 | 0.0 | 0.00 | 0.00 | 0.00 | 94 | 1011.5 | |
| 20260510094541 | 8 | 0.0 | 0.0 | 0.00 | 0.00 | 0.00 | 93 | 1011.7 | |
| 20260510094324 | 9 | 0.0 | 0.0 | 0.00 | 0.00 | 0.00 | 94 | 1011.4 | |
| 20260510094025 | 9 | 0.0 | 0.0 | 0.00 | 0.00 | 0.00 | 93 | 1011.7 | |
| 20260510093832 | 9 | 0.0 | 0.0 | 0.00 | 0.00 | 0.00 | 94 | 1011.4 | |
| 20260510093526 | 9 | 0.0 | 0.0 | 0.00 | 0.00 | 0.00 | 93 | 1011.6 | |
| 20260510093322 | 9 | 0.0 | 0.0 | 0.00 | 0.00 | 0.00 | 93 | 1011.4 | |
| 20260510093037 | 9 | 0.0 | 0.0 | 0.00 | 0.00 | 0.00 | 93 | 1011.7 | |
| 20260510092829 | 9 | 0.0 | 0.0 | 0.00 | 0.00 | 0.00 | 94 | 1011.5 | |
| 20260510092526 | 9 | 0.0 | 0.0 | 0.00 | 0.00 | 0.00 | 93 | 1011.8 | |
| 20260510092334 | 9 | 0.0 | 0.0 | 0.00 | 0.00 | 0.00 | 93 | 1011.6 | |
| 20260510092026 | 9 | 0.0 | 0.0 | 0.00 | 0.00 | 0.00 | 93 | 1011.8 | |
| 20260510091818 | 9 | 0.0 | 0.0 | 0.00 | 0.00 | 0.00 | 93 | 1011.6 | |
| 20260510091537 | 9 | 0.0 | 0.0 | 0.00 | 0.00 | 0.00 | 93 | 1011.7 | |
| 20260510091322 | 9 | 0.0 | 0.0 | 0.00 | 0.00 | 0.00 | 93 | 1011.5 | |
| 20260510091025 | 9 | 0.0 | 0.0 | 0.00 | 0.00 | 0.00 | 93 | 1011.8 | |
| 20260510090849 | 9 | 0.0 | 0.0 | 0.00 | 0.00 | 0.00 | 93 | 1011.5 | |
| 20260510090527 | 9 | 0.0 | 0.0 | 0.00 | 0.00 | 0.00 | 93 | 1011.6 | |
| 20260510090353 | 9 | 0.0 | 0.0 | 0.00 | 0.00 | 0.00 | 93 | 1011.4 | |
| 20260510090040 | 9 | 0.0 | 0.0 | 0.00 | 0.00 | 0.00 | 93 | 1011.5 | |
| 20260510085816 | 10 | 0.0 | 0.0 | 0.00 | 0.00 | 0.00 | 93 | 1011.3 | |
| 20260510085528 | 9 | 0.0 | 0.0 | 0.00 | 0.00 | 0.00 | 93 | 1011.6 | |
| 20260510085321 | 10 | 0.0 | 0.0 | 0.00 | 0.00 | 0.00 | 93 | 1011.3 | |
| 20260510085025 | 9 | 0.0 | 0.0 | 0.00 | 0.00 | 0.00 | 93 | 1011.6 | |
| 20260510084829 | 10 | 0.0 | 0.0 | 0.00 | 0.00 | 0.00 | 93 | 1011.4 | |
| 20260510084542 | 9 | 0.0 | 0.0 | 0.00 | 0.00 | 0.00 | 93 | 1011.6 | |
| 20260510084316 | 10 | 0.0 | 0.0 | 0.00 | 0.00 | 0.00 | 93 | 1011.4 | |
| 20260510084025 | 9 | 0.0 | 0.0 | 0.00 | 0.00 | 0.00 | 93 | 1011.6 | |
| 20260510083823 | 10 | 0.0 | 0.0 | 0.00 | 0.00 | 0.00 | 93 | 1011.4 | |
| 20260510083529 | 9 | 0.0 | 0.0 | 0.00 | 0.00 | 0.00 | 92 | 1011.6 | |
| 20260510083335 | 10 | 0.0 | 0.0 | 0.00 | 0.00 | 0.00 | 93 | 1011.4 | |
| 20260510083039 | 9 | 0.0 | 0.0 | 0.00 | 0.00 | 0.00 | 92 | 1011.6 | |
| 20260510082820 | 10 | 0.0 | 0.0 | 0.00 | 0.00 | 0.00 | 93 | 1011.4 | |
| 20260510082527 | 10 | 0.0 | 0.0 | 0.00 | 0.00 | 0.00 | 92 | 1011.6 | |
| 20260510082324 | 10 | 0.0 | 0.0 | 0.00 | 0.00 | 0.00 | 93 | 1011.3 | |
| 20260510082025 | 10 | 0.0 | 0.0 | 0.00 | 0.00 | 0.00 | 92 | 1011.5 | |
| 20260510081817 | 10 | 0.0 | 0.0 | 0.00 | 0.00 | 0.00 | 93 | 1011.4 | |
| 20260510081542 | 10 | 0.0 | 0.0 | 0.00 | 0.00 | 0.00 | 93 | 1011.5 | |
| 20260510081321 | 10 | 0.0 | 0.0 | 0.00 | 0.00 | 0.00 | 93 | 1011.3 | |
| 20260510081025 | 10 | 0.0 | 0.0 | 0.00 | 0.00 | 0.00 | 93 | 1011.4 | |
| 20260510080826 | 10 | 0.0 | 0.0 | 0.00 | 0.00 | 0.00 | 93 | 1011.3 | |
| 20260510080525 | 10 | 0.0 | 0.0 | 0.00 | 0.00 | 0.00 | 93 | 1011.4 | |
| 20260510080332 | 10 | 0.0 | 0.0 | 0.00 | 0.00 | 0.00 | 93 | 1011.2 | |
| 20260510080039 | 10 | 0.0 | 0.0 | 0.00 | 0.00 | 0.00 | 93 | 1011.5 | |
| 20260510075819 | 10 | 0.0 | 0.0 | 0.00 | 0.00 | 0.00 | 93 | 1011.2 | |
| 20260510075524 | 10 | 0.0 | 0.0 | 0.00 | 0.00 | 0.00 | 93 | 1011.3 | |
| 20260510075323 | 10 | 0.0 | 0.0 | 0.00 | 0.00 | 0.00 | 93 | 1011.1 | |
| 20260510075025 | 10 | 0.0 | 0.0 | 0.00 | 0.00 | 0.00 | 92 | 1011.2 | |
| 20260510074828 | 10 | 0.0 | 0.0 | 0.00 | 0.00 | 0.00 | 93 | 1010.9 | |
| 20260510074537 | 10 | 0.0 | 0.0 | 0.00 | 0.00 | 0.00 | 92 | 1011.1 | |
| 20260510074316 | 10 | 0.0 | 0.0 | 0.00 | 0.00 | 0.00 | 93 | 1010.9 | |
| 20260510074025 | 10 | 0.0 | 0.0 | 0.00 | 0.00 | 0.00 | 92 | 1011.0 | |
| 20260510073820 | 10 | 0.0 | 0.0 | 0.00 | 0.00 | 0.00 | 93 | 1010.8 | |
| 20260510073530 | 10 | 0.0 | 0.0 | 0.00 | 0.00 | 0.00 | 92 | 1010.9 | |
| 20260510073324 | 10 | 0.0 | 0.0 | 0.00 | 0.00 | 0.00 | 93 | 1010.8 | |
| 20260510073037 | 10 | 0.0 | 0.0 | 0.00 | 0.00 | 0.00 | 92 | 1010.9 | |
| 20260510072832 | 10 | 0.0 | 0.0 | 0.00 | 0.00 | 0.00 | 93 | 1010.7 | |
| 20260510072525 | 10 | 0.0 | 0.0 | 0.00 | 0.00 | 0.00 | 92 | 1010.9 | |
| 20260510072319 | 10 | 0.0 | 0.0 | 0.00 | 0.00 | 0.00 | 93 | 1010.7 | |
| 20260510072026 | 10 | 0.0 | 0.0 | 0.00 | 0.00 | 0.00 | 92 | 1010.8 | |
| 20260510071826 | 10 | 0.0 | 0.0 | 0.00 | 0.00 | 0.00 | 92 | 1010.6 | |
| 20260510071542 | 10 | 0.0 | 0.0 | 0.00 | 0.00 | 0.00 | 92 | 1010.7 | |
| 20260510071333 | 10 | 0.0 | 0.0 | 0.00 | 0.00 | 0.00 | 93 | 1010.5 | |
| 20260510071025 | 10 | 0.0 | 0.0 | 0.00 | 0.00 | 0.00 | 92 | 1010.7 | |
| 20260510070817 | 11 | 0.0 | 0.0 | 0.00 | 0.00 | 0.00 | 93 | 1010.5 | |
| 20260510070527 | 10 | 0.0 | 0.0 | 0.00 | 0.00 | 0.00 | 92 | 1010.7 | |
| 20260510070321 | 11 | 0.0 | 0.0 | 0.00 | 0.00 | 0.00 | 92 | 1010.5 | |
| 20260510070043 | 10 | 0.0 | 0.0 | 0.00 | 0.00 | 0.00 | 92 | 1010.6 | |
| 20260510065824 | 11 | 0.0 | 0.0 | 0.00 | 0.00 | 0.00 | 92 | 1010.4 | |
| 20260510065527 | 10 | 0.0 | 0.0 | 0.00 | 0.00 | 0.00 | 92 | 1010.7 | |
| 20260510065316 | 11 | 0.0 | 0.0 | 0.00 | 0.00 | 0.00 | 92 | 1010.4 | |
| 20260510065024 | 10 | 0.0 | 0.0 | 0.00 | 0.00 | 0.00 | 92 | 1010.6 | |
| 20260510064819 | 11 | 0.0 | 0.0 | 0.00 | 0.00 | 0.00 | 92 | 1010.4 | |
| 20260510064539 | 10 | 0.0 | 0.0 | 0.00 | 0.00 | 0.00 | 92 | 1010.6 | |
| 20260510064324 | 11 | 0.0 | 0.0 | 0.00 | 0.00 | 0.00 | 92 | 1010.3 | |
| 20260510064024 | 11 | 0.0 | 0.0 | 0.00 | 0.00 | 0.00 | 92 | 1010.5 | |
| 20260510063832 | 11 | 0.0 | 0.0 | 0.00 | 0.00 | 0.00 | 92 | 1010.2 | |
| 20260510063525 | 11 | 0.0 | 0.0 | 0.00 | 0.00 | 0.00 | 92 | 1010.3 | |
| 20260510063316 | 11 | 0.0 | 0.0 | 0.00 | 0.00 | 0.00 | 92 | 1010.1 | |
| 20260510063039 | 11 | 0.0 | 0.0 | 0.00 | 0.00 | 0.00 | 92 | 1010.3 | |
| 20260510062819 | 11 | 0.0 | 0.0 | 0.00 | 0.00 | 0.00 | 92 | 1010.1 | |
| 20260510062525 | 11 | 0.0 | 0.0 | 0.00 | 0.00 | 0.00 | 91 | 1010.3 | |
| 20260510062345 | 11 | 0.0 | 0.0 | 0.00 | 0.00 | 0.00 | 92 | 1010.1 | |
| 20260510062025 | 11 | 0.0 | 0.0 | 0.00 | 0.00 | 0.00 | 91 | 1010.4 | |
| 20260510061828 | 11 | 0.0 | 0.0 | 0.00 | 0.00 | 0.00 | 92 | 1010.1 | |
| 20260510061538 | 11 | 0.0 | 0.0 | 0.00 | 0.00 | 0.00 | 91 | 1010.3 | |
| 20260510061316 | 11 | 0.0 | 0.0 | 0.00 | 0.00 | 0.00 | 92 | 1010.1 | |
| 20260510061026 | 11 | 0.0 | 0.0 | 0.00 | 0.00 | 0.00 | 92 | 1010.4 | |
| 20260510060844 | 11 | 0.0 | 0.0 | 0.00 | 0.00 | 0.00 | 92 | 1010.0 | |
| 20260510060526 | 11 | 0.0 | 0.0 | 0.00 | 0.00 | 0.00 | 92 | 1010.3 | |
| 20260510060330 | 11 | 0.0 | 0.0 | 0.00 | 0.00 | 0.00 | 92 | 1010.0 | |
| 20260510060047 | 11 | 0.0 | 0.0 | 0.00 | 0.00 | 0.00 | 91 | 1010.3 | |
| 20260510055837 | 11 | 0.0 | 0.0 | 0.00 | 0.00 | 0.00 | 92 | 1010.0 | |
| 20260510055525 | 11 | 0.0 | 0.0 | 0.00 | 0.00 | 0.00 | 91 | 1010.4 | |
| 20260510055323 | 11 | 0.0 | 0.0 | 0.00 | 0.00 | 0.00 | 92 | 1010.0 | |
| 20260510055025 | 11 | 0.0 | 0.0 | 0.00 | 0.00 | 0.00 | 91 | 1010.4 | |
| 20260510054835 | 11 | 0.0 | 0.0 | 0.00 | 0.00 | 0.00 | 92 | 1010.1 | |
| 20260510054541 | 11 | 0.0 | 0.0 | 0.00 | 0.00 | 0.00 | 91 | 1010.5 | |
| 20260510054339 | 11 | 0.0 | 0.0 | 0.00 | 0.00 | 0.00 | 92 | 1010.1 | |
| 20260510054025 | 11 | 0.0 | 0.0 | 0.00 | 0.00 | 0.00 | 91 | 1010.6 | |
| 20260510053823 | 11 | 0.0 | 0.0 | 0.00 | 0.00 | 0.00 | 92 | 1010.2 | |
| 20260510053526 | 11 | 0.0 | 0.0 | 0.00 | 0.00 | 0.00 | 91 | 1010.7 | |
| 20260510053348 | 12 | 0.0 | 0.0 | 0.00 | 0.00 | 0.00 | 92 | 1010.3 | |
| 20260510053041 | 11 | 0.0 | 0.0 | 0.00 | 0.00 | 0.00 | 91 | 1010.7 | |
| 20260510052813 | 12 | 0.0 | 0.0 | 0.00 | 0.00 | 0.00 | 92 | 1010.2 | |
| 20260510052526 | 11 | 0.0 | 0.0 | 0.00 | 0.00 | 0.00 | 91 | 1010.7 | |
| 20260510052321 | 12 | 0.0 | 0.0 | 0.00 | 0.00 | 0.00 | 92 | 1010.3 | |
| 20260510052025 | 11 | 0.0 | 0.0 | 0.00 | 0.00 | 0.00 | 91 | 1010.8 | |
| 20260510051545 | 11 | 0.0 | 0.0 | 0.00 | 0.00 | 0.00 | 91 | 1010.8 | |
| 20260510051342 | 12 | 0.0 | 0.0 | 0.00 | 0.00 | 0.00 | 91 | 1010.3 | |
| 20260510051025 | 12 | 0.0 | 0.0 | 0.00 | 0.00 | 0.00 | 91 | 1010.8 | |
| 20260510050826 | 12 | 0.0 | 0.0 | 0.00 | 0.00 | 0.00 | 91 | 1010.3 | |
| 20260510050524 | 12 | 0.0 | 0.0 | 0.00 | 0.00 | 0.00 | 91 | 1010.7 | |
| 20260510050314 | 12 | 0.0 | 0.0 | 0.00 | 0.00 | 0.00 | 91 | 1010.3 | |
| 20260510050037 | 12 | 0.0 | 0.0 | 0.00 | 0.00 | 0.00 | 91 | 1010.7 | |
| 20260510045821 | 12 | 0.0 | 0.0 | 0.00 | 0.00 | 0.00 | 91 | 1010.3 | |
| 20260510045529 | 12 | 0.0 | 0.0 | 0.00 | 0.00 | 0.00 | 91 | 1010.7 | |
| 20260510045328 | 12 | 0.0 | 0.0 | 0.00 | 0.00 | 0.00 | 91 | 1010.2 | |
| 20260510045026 | 12 | 0.0 | 0.0 | 0.00 | 0.00 | 0.00 | 90 | 1010.6 | |
| 20260510044832 | 12 | 0.0 | 0.0 | 0.00 | 0.00 | 0.00 | 91 | 1010.2 | |
| 20260510044538 | 12 | 0.0 | 0.0 | 0.00 | 0.00 | 0.00 | 90 | 1010.7 | |
| 20260510044316 | 12 | 0.0 | 0.0 | 0.00 | 0.00 | 0.00 | 91 | 1010.3 | |
| 20260510044027 | 12 | 0.0 | 0.0 | 0.00 | 0.00 | 0.00 | 91 | 1010.7 | |
| 20260510043843 | 12 | 0.0 | 0.0 | 0.00 | 0.00 | 0.00 | 91 | 1010.3 | |
| 20260510043526 | 12 | 0.0 | 0.0 | 0.00 | 0.00 | 0.00 | 90 | 1010.7 | |
| 20260510043313 | 12 | 0.0 | 0.0 | 0.00 | 0.00 | 0.00 | 91 | 1010.2 | |
| 20260510043107 | 12 | 0.0 | 0.0 | 0.00 | 0.00 | 0.00 | 90 | 1010.7 | |
| 20260510042820 | 12 | 0.0 | 0.0 | 0.00 | 0.00 | 0.00 | 90 | 1010.2 | |
| 20260510042523 | 12 | 0.0 | 0.0 | 0.00 | 0.00 | 0.00 | 90 | 1010.7 | |
| 20260510042328 | 12 | 0.0 | 0.0 | 0.00 | 0.00 | 0.00 | 90 | 1010.2 | |
| 20260510042025 | 12 | 0.0 | 0.0 | 0.00 | 0.00 | 0.00 | 90 | 1010.6 | |
| 20260510041815 | 13 | 0.0 | 0.0 | 0.00 | 0.00 | 0.00 | 90 | 1010.2 | |
| 20260510041549 | 12 | 0.0 | 0.0 | 0.00 | 0.00 | 0.00 | 90 | 1010.6 | |
| 20260510041322 | 13 | 0.0 | 0.0 | 0.00 | 0.00 | 0.00 | 90 | 1010.1 | |
| 20260510041025 | 12 | 0.0 | 0.0 | 0.00 | 0.00 | 0.00 | 90 | 1010.6 | |
| 20260510040827 | 13 | 0.0 | 0.0 | 0.00 | 0.00 | 0.00 | 90 | 1010.1 | |
| 20260510040525 | 12 | 0.0 | 0.0 | 0.00 | 0.00 | 0.00 | 90 | 1010.6 | |
| 20260510040332 | 13 | 0.0 | 0.0 | 0.00 | 0.00 | 0.00 | 90 | 1010.1 | |
| 20260510040039 | 13 | 0.0 | 0.0 | 0.00 | 0.00 | 0.00 | 89 | 1010.5 | |
| 20260510035816 | 13 | 0.0 | 0.0 | 0.00 | 0.00 | 0.00 | 90 | 1010.0 | |
| 20260510035527 | 13 | 0.0 | 0.0 | 0.00 | 0.00 | 0.00 | 89 | 1010.6 | |
| 20260510035320 | 13 | 0.0 | 0.0 | 0.00 | 0.00 | 0.00 | 89 | 1010.0 | |
| 20260510035029 | 13 | 0.0 | 0.0 | 0.00 | 0.00 | 0.00 | 89 | 1010.5 | |
| 20260510034827 | 13 | 0.0 | 0.0 | 0.00 | 0.00 | 0.00 | 89 | 1010.0 | |
| 20260510034543 | 13 | 0.0 | 0.0 | 0.00 | 0.00 | 0.00 | 89 | 1010.4 | |
| 20260510034317 | 13 | 0.0 | 0.0 | 0.00 | 0.00 | 0.00 | 89 | 1010.0 | |
| 20260510034026 | 13 | 0.0 | 0.0 | 0.00 | 0.00 | 0.00 | 88 | 1010.5 | |
| 20260510033824 | 13 | 0.0 | 0.0 | 0.00 | 0.00 | 0.00 | 89 | 1010.0 | |
| 20260510033526 | 13 | 0.0 | 0.0 | 0.00 | 0.00 | 0.00 | 88 | 1010.5 | |
| 20260510033331 | 13 | 0.0 | 0.0 | 0.00 | 0.00 | 0.00 | 89 | 1010.0 | |
| 20260510033048 | 13 | 0.0 | 0.0 | 0.00 | 0.00 | 0.00 | 88 | 1010.5 | |
| 20260510032817 | 13 | 0.0 | 0.0 | 0.00 | 0.00 | 0.00 | 89 | 1010.0 | |
| 20260510032527 | 13 | 0.0 | 0.0 | 0.00 | 0.00 | 0.00 | 88 | 1010.5 | |
| 20260510032322 | 13 | 0.0 | 0.0 | 0.00 | 0.00 | 0.00 | 88 | 1010.0 | |
| 20260510032023 | 13 | 0.0 | 0.0 | 0.00 | 0.00 | 0.00 | 88 | 1010.5 | |
| 20260510031847 | 13 | 0.0 | 0.0 | 0.00 | 0.00 | 0.00 | 88 | 1010.0 | |
| 20260510031613 | 13 | 0.0 | 0.0 | 0.00 | 0.00 | 0.00 | 87 | 1010.5 | |
| 20260510031332 | 14 | 0.0 | 0.0 | 0.00 | 0.00 | 0.00 | 88 | 1009.9 | |
| 20260510031027 | 13 | 0.0 | 0.0 | 0.00 | 0.00 | 0.00 | 87 | 1010.4 | |
| 20260510030816 | 14 | 0.0 | 0.0 | 0.00 | 0.00 | 0.00 | 87 | 1009.9 | |
| 20260510030526 | 13 | 0.0 | 0.0 | 0.00 | 0.00 | 0.00 | 87 | 1010.4 | |
| 20260510030321 | 14 | 0.0 | 0.0 | 0.00 | 0.00 | 0.00 | 87 | 1010.0 | |
| 20260510030042 | 13 | 0.0 | 0.0 | 0.00 | 0.00 | 0.00 | 86 | 1010.5 | |
| 20260510025827 | 14 | 0.0 | 0.0 | 0.00 | 0.00 | 0.00 | 87 | 1009.9 | |
| 20260510025525 | 14 | 0.0 | 0.0 | 0.00 | 0.00 | 0.00 | 86 | 1010.4 | |
| 20260510025316 | 14 | 0.0 | 0.0 | 0.00 | 0.00 | 0.00 | 87 | 1009.9 | |
| 20260510025025 | 14 | 0.0 | 0.0 | 0.00 | 0.00 | 0.00 | 86 | 1010.4 | |
| 20260510024824 | 14 | 0.0 | 0.0 | 0.00 | 0.00 | 0.00 | 86 | 1010.0 | |
| 20260510024541 | 14 | 0.0 | 0.0 | 0.00 | 0.00 | 0.00 | 86 | 1010.4 | |
| 20260510024328 | 15 | 0.0 | 0.0 | 0.00 | 0.00 | 0.00 | 86 | 1009.9 | |
| 20260510024025 | 14 | 0.0 | 0.0 | 0.00 | 0.00 | 0.00 | 86 | 1010.4 | |
| 20260510023832 | 15 | 0.0 | 0.0 | 0.00 | 0.00 | 0.00 | 86 | 1009.9 | |
| 20260510023522 | 14 | 0.0 | 0.0 | 0.00 | 0.00 | 0.00 | 85 | 1010.3 | |
| 20260510023316 | 15 | 0.0 | 0.0 | 0.00 | 0.00 | 0.00 | 85 | 1009.9 | |
| 20260510023047 | 15 | 0.0 | 0.0 | 0.00 | 0.00 | 0.00 | 85 | 1010.3 | |
| 20260510022820 | 15 | 0.0 | 0.0 | 0.00 | 0.00 | 0.00 | 85 | 1009.8 | |
| 20260510022523 | 15 | 0.0 | 0.0 | 0.00 | 0.00 | 0.00 | 84 | 1010.3 | |
| 20260510022348 | 15 | 0.0 | 0.0 | 0.00 | 0.00 | 0.00 | 84 | 1009.8 | |
| 20260510022023 | 15 | 0.0 | 0.0 | 0.00 | 0.00 | 0.00 | 84 | 1010.2 | |
| 20260510021835 | 15 | 0.0 | 0.0 | 0.00 | 0.00 | 0.00 | 84 | 1009.7 | |
| 20260510021542 | 15 | 0.0 | 0.0 | 0.00 | 0.00 | 0.00 | 83 | 1010.1 | |
| 20260510021319 | 15 | 0.0 | 0.0 | 0.00 | 0.00 | 0.00 | 84 | 1009.7 | |
| 20260510021022 | 15 | 0.0 | 0.0 | 0.00 | 0.00 | 0.00 | 83 | 1010.1 | |
| 20260510020821 | 15 | 0.0 | 0.0 | 0.00 | 0.00 | 0.00 | 83 | 1009.6 | |
| 20260510020523 | 15 | 0.0 | 0.0 | 0.00 | 0.00 | 0.00 | 82 | 1010.1 | |
| 20260510020325 | 15 | 0.0 | 0.0 | 0.00 | 0.00 | 0.00 | 83 | 1009.7 | |
| 20260510020043 | 15 | 0.0 | 0.0 | 0.00 | 0.00 | 0.00 | 82 | 1010.0 | |
| 20260510015833 | 16 | 0.0 | 0.0 | 0.00 | 0.00 | 0.00 | 82 | 1009.6 | |
| 20260510015523 | 15 | 0.0 | 0.0 | 0.00 | 0.00 | 0.00 | 82 | 1010.0 | |
| 20260510015320 | 16 | 0.0 | 0.0 | 0.00 | 0.00 | 0.00 | 82 | 1009.6 | |
| 20260510015025 | 15 | 0.0 | 0.0 | 0.00 | 0.00 | 0.00 | 81 | 1010.0 | |
| 20260510014827 | 16 | 0.0 | 0.0 | 0.00 | 0.00 | 0.00 | 82 | 1009.6 | |
| 20260510014538 | 16 | 0.0 | 0.0 | 0.00 | 0.00 | 0.00 | 81 | 1010.0 | |
| 20260510014331 | 16 | 0.0 | 0.0 | 0.00 | 0.00 | 0.00 | 81 | 1009.6 | |
| 20260510014022 | 16 | 0.0 | 0.0 | 0.00 | 0.00 | 0.00 | 81 | 1009.9 | |
| 20260510013818 | 16 | 0.0 | 0.0 | 0.00 | 0.00 | 0.00 | 81 | 1009.4 | |
| 20260510013526 | 16 | 0.0 | 0.0 | 0.00 | 0.00 | 0.00 | 80 | 1009.8 | |
| 20260510013326 | 16 | 0.0 | 0.0 | 0.00 | 0.00 | 0.00 | 80 | 1009.4 | |
| 20260510013042 | 16 | 0.0 | 0.0 | 0.00 | 0.00 | 0.00 | 80 | 1009.8 | |
| 20260510012830 | 16 | 0.0 | 0.0 | 0.00 | 0.00 | 0.00 | 80 | 1009.3 | |
| 20260510012527 | 16 | 0.0 | 0.0 | 0.00 | 0.00 | 0.00 | 79 | 1009.7 | |
| 20260510012337 | 16 | 0.0 | 0.0 | 0.00 | 0.00 | 0.00 | 80 | 1009.2 | |
| 20260510012026 | 16 | 0.0 | 0.0 | 0.00 | 0.00 | 0.00 | 80 | 1009.6 | |
| 20260510011820 | 16 | 0.0 | 0.0 | 0.00 | 0.00 | 0.00 | 80 | 1009.0 | |
| 20260510011553 | 16 | 0.0 | 0.0 | 0.00 | 0.00 | 0.00 | 80 | 1009.4 | |
| 20260510011326 | 16 | 0.0 | 0.0 | 0.00 | 0.00 | 0.00 | 80 | 1009.0 | |
| 20260510011027 | 16 | 0.0 | 0.0 | 0.00 | 0.00 | 0.00 | 80 | 1009.4 | |
| 20260510010830 | 16 | 0.0 | 0.0 | 0.00 | 0.00 | 0.00 | 80 | 1008.9 | |
| 20260510010523 | 16 | 0.0 | 0.0 | 0.00 | 0.00 | 0.00 | 80 | 1009.3 | |
| 20260510010317 | 16 | 0.0 | 0.0 | 0.00 | 0.00 | 0.00 | 80 | 1008.8 | |
| 20260510010045 | 16 | 0.0 | 0.0 | 0.00 | 0.00 | 0.00 | 79 | 1009.2 | |
| 20260510005827 | 16 | 0.0 | 0.0 | 0.00 | 0.00 | 0.00 | 80 | 1008.8 | |
| 20260510005523 | 16 | 0.0 | 0.0 | 0.00 | 0.00 | 0.00 | 79 | 1009.2 | |
| 20260510005331 | 16 | 0.0 | 0.0 | 0.00 | 0.00 | 0.00 | 79 | 1008.8 | |
| 20260510005022 | 16 | 0.0 | 0.0 | 0.00 | 0.00 | 0.00 | 78 | 1009.2 | |
| 20260510004816 | 16 | 0.0 | 0.0 | 0.00 | 0.00 | 0.00 | 79 | 1008.7 | |
| 20260510004538 | 16 | 0.0 | 0.0 | 0.00 | 0.00 | 0.00 | 78 | 1009.1 | |
| 20260510004323 | 17 | 0.0 | 0.0 | 0.00 | 0.00 | 0.00 | 78 | 1008.6 | |
| 20260510004024 | 16 | 0.0 | 0.0 | 0.00 | 0.00 | 0.00 | 77 | 1009.0 | |
| 20260510003831 | 17 | 0.0 | 0.0 | 0.00 | 0.00 | 0.00 | 77 | 1008.6 | |
| 20260510003525 | 17 | 0.0 | 0.0 | 0.00 | 0.00 | 0.00 | 76 | 1009.0 | |
| 20260510003337 | 17 | 0.0 | 0.0 | 0.00 | 0.00 | 0.00 | 76 | 1008.6 | |
| 20260510003044 | 17 | 0.0 | 0.0 | 0.00 | 0.00 | 0.00 | 76 | 1008.9 | |
| 20260510002824 | 17 | 0.0 | 0.0 | 0.00 | 0.00 | 0.00 | 76 | 1008.5 | |
| 20260510002522 | 17 | 0.0 | 0.0 | 0.00 | 0.00 | 0.00 | 75 | 1008.9 | |
| 20260510002331 | 17 | 0.0 | 0.0 | 0.00 | 0.00 | 0.00 | 75 | 1008.5 | |
| 20260510002029 | 17 | 0.0 | 0.0 | 0.00 | 0.00 | 0.00 | 74 | 1008.8 | |
| 20260510001816 | 18 | 0.0 | 0.0 | 0.00 | 0.00 | 0.00 | 74 | 1008.4 | |
| 20260510001543 | 17 | 0.0 | 0.0 | 0.00 | 0.00 | 0.00 | 74 | 1008.8 | |
| 20260510001320 | 18 | 0.0 | 0.0 | 0.00 | 0.00 | 0.00 | 74 | 1008.4 | |
| 20260510001025 | 18 | 0.0 | 0.0 | 0.00 | 0.00 | 0.00 | 73 | 1008.7 | |
| 20260510000827 | 18 | 0.0 | 0.0 | 0.00 | 0.00 | 0.00 | 74 | 1008.4 | |
| 20260510000526 | 18 | 0.0 | 0.0 | 0.00 | 0.00 | 0.00 | 72 | 1008.7 | |
| 20260510000336 | 18 | 0.0 | 0.0 | 0.00 | 0.00 | 0.00 | 73 | 1008.3 | |
| 20260510000047 | 18 | 0.0 | 0.0 | 0.00 | 0.00 | 0.00 | 72 | 1008.7 | |
| 20260509235822 | 18 | 0.0 | 0.0 | 0.00 | 0.00 | 0.00 | 72 | 1008.3 | |
| 20260509235528 | 18 | 0.0 | 0.0 | 0.00 | 0.00 | 0.00 | 71 | 1008.7 | |
| 20260509235326 | 18 | 165 | 0.0 | 0.0 | 0.00 | 0.00 | 0.00 | 71 | 1008.4 |
| 20260509235025 | 18 | 0.0 | 0.0 | 0.00 | 0.00 | 0.00 | 71 | 1008.6 | |
| 20260509234832 | 19 | 165 | 0.0 | 0.0 | 0.00 | 0.00 | 0.00 | 71 | 1008.3 |
| 20260509234540 | 18 | 0 | 0.0 | 0.0 | 0.00 | 0.00 | 0.00 | 70 | 1008.6 |
| 20260509234320 | 19 | 164 | 0.0 | 0.0 | 0.00 | 0.00 | 0.00 | 70 | 1008.2 |
| 20260509234027 | 19 | 0 | 0.0 | 0.0 | 0.00 | 0.00 | 0.00 | 69 | 1008.6 |
| 20260509233844 | 19 | 164 | 0.0 | 0.0 | 0.00 | 0.00 | 0.00 | 69 | 1008.2 |
| 20260509233526 | 19 | 0 | 0.0 | 0.0 | 0.00 | 0.00 | 0.00 | 68 | 1008.5 |
| 20260509233331 | 20 | 164 | 0.0 | 0.0 | 0.00 | 0.00 | 0.00 | 68 | 1008.1 |
| 20260509233037 | 19 | 0 | 0.0 | 0.0 | 0.00 | 0.00 | 0.00 | 68 | 1008.5 |
| 20260509232816 | 20 | 164 | 0.0 | 0.0 | 0.00 | 0.00 | 0.00 | 68 | 1008.0 |
| 20260509232526 | 19 | 0 | 0.0 | 0.0 | 0.00 | 0.00 | 0.00 | 66 | 1008.5 |
| 20260509232321 | 20 | 164 | 0.0 | 0.0 | 0.00 | 0.00 | 0.00 | 67 | 1008.1 |
| 20260509232026 | 20 | 0 | 0.0 | 0.0 | 0.00 | 0.00 | 0.00 | 65 | 1008.5 |
| 20260509231825 | 20 | 164 | 0.0 | 0.0 | 0.00 | 0.00 | 0.00 | 67 | 1008.0 |
| 20260509231539 | 20 | 0 | 0.0 | 0.0 | 0.00 | 0.00 | 0.00 | 65 | 1008.4 |
| 20260509231332 | 20 | 164 | 0.0 | 0.0 | 0.00 | 0.00 | 0.00 | 67 | 1008.0 |
| 20260509231025 | 20 | 0 | 0.0 | 0.0 | 0.00 | 0.00 | 0.00 | 66 | 1008.4 |
| 20260509230820 | 20 | 165 | 0.0 | 0.0 | 0.00 | 0.00 | 0.00 | 66 | 1008.0 |
| 20260509230525 | 20 | 0 | 0.0 | 0.0 | 0.00 | 0.00 | 0.00 | 66 | 1008.4 |
| 20260509230326 | 20 | 165 | 0.0 | 0.0 | 0.00 | 0.00 | 0.00 | 66 | 1008.0 |
| 20260509230037 | 20 | 0 | 0.0 | 0.0 | 0.00 | 0.00 | 0.00 | 65 | 1008.3 |
| 20260509225851 | 20 | 165 | 0.0 | 0.0 | 0.00 | 0.00 | 0.00 | 66 | 1008.0 |
| 20260509225526 | 20 | 0 | 0.0 | 0.0 | 0.00 | 0.00 | 0.00 | 65 | 1008.4 |
| 20260509225334 | 20 | 165 | 0.0 | 0.0 | 0.00 | 0.00 | 0.00 | 65 | 1008.1 |
| 20260509225025 | 20 | 0 | 0.0 | 0.0 | 0.00 | 0.00 | 0.00 | 62 | 1008.5 |
| 20260509224818 | 20 | 165 | 0.0 | 0.0 | 0.00 | 0.00 | 0.00 | 62 | 1008.1 |
| 20260509224542 | 20 | 0 | 0.0 | 0.0 | 0.00 | 0.00 | 0.00 | 61 | 1008.4 |
| 20260509224323 | 21 | 165 | 0.0 | 0.0 | 0.00 | 0.00 | 0.00 | 62 | 1008.0 |
| 20260509224025 | 21 | 0 | 0.0 | 0.0 | 0.00 | 0.00 | 0.00 | 60 | 1008.4 |
| 20260509223831 | 21 | 165 | 0.0 | 0.0 | 0.00 | 0.00 | 0.00 | 62 | 1008.0 |
| 20260509223526 | 21 | 0 | 0.0 | 0.0 | 0.00 | 0.00 | 0.00 | 62 | 1008.3 |
| 20260509223318 | 21 | 165 | 0.0 | 0.0 | 0.00 | 0.00 | 0.00 | 60 | 1007.9 |
| 20260509223043 | 21 | 0 | 0.0 | 0.0 | 0.00 | 0.00 | 0.00 | 58 | 1008.3 |
| 20260509222822 | 21 | 165 | 0.0 | 0.0 | 0.00 | 0.00 | 0.00 | 58 | 1008.0 |
| 20260509222526 | 21 | 0 | 0.0 | 0.0 | 0.00 | 0.00 | 0.00 | 60 | 1008.4 |
| 20260509222327 | 21 | 165 | 0.0 | 0.0 | 0.00 | 0.00 | 0.00 | 59 | 1008.1 |
| 20260509222025 | 21 | 0 | 0.0 | 0.0 | 0.00 | 0.00 | 0.00 | 61 | 1008.4 |
| 20260509221831 | 21 | 165 | 0.0 | 0.0 | 0.00 | 0.00 | 0.00 | 59 | 1008.1 |
| 20260509221542 | 21 | 0 | 0.0 | 0.0 | 0.00 | 0.00 | 0.00 | 58 | 1008.5 |
| 20260509221320 | 21 | 165 | 0.0 | 0.0 | 0.00 | 0.00 | 0.00 | 58 | 1008.0 |
| 20260509221026 | 21 | 0 | 0.0 | 0.0 | 0.00 | 0.00 | 0.00 | 58 | 1008.5 |
| 20260509220844 | 21 | 165 | 0.0 | 0.0 | 0.00 | 0.00 | 0.00 | 58 | 1008.0 |
| 20260509220527 | 21 | 0 | 0.0 | 0.0 | 0.00 | 0.00 | 0.00 | 58 | 1008.4 |
| 20260509220328 | 21 | 165 | 0.0 | 0.0 | 0.00 | 0.00 | 0.00 | 57 | 1008.0 |
| 20260509220044 | 21 | 0 | 0.0 | 3.2 | 0.00 | 0.00 | 0.00 | 57 | 1008.4 |
| 20260509215832 | 21 | 165 | 0.0 | 3.2 | 0.00 | 0.00 | 0.00 | 57 | 1008.0 |
| 20260509215528 | 21 | 0 | 0.0 | 3.2 | 0.00 | 0.00 | 0.00 | 56 | 1008.5 |
| 20260509215316 | 21 | 140 | 0.0 | 3.2 | 0.00 | 0.00 | 0.00 | 58 | 1008.1 |
| 20260509215026 | 21 | 26 | 0.0 | 3.2 | 0.00 | 0.00 | 0.00 | 55 | 1008.5 |
| 20260509214819 | 21 | 260 | 0.0 | 3.2 | 0.00 | 0.00 | 0.00 | 56 | 1008.1 |
| 20260509214541 | 21 | 0 | 0.0 | 3.2 | 0.00 | 0.00 | 0.00 | 58 | 1008.5 |
| 20260509214324 | 21 | 261 | 0.0 | 3.2 | 0.00 | 0.00 | 0.00 | 56 | 1008.1 |
| 20260509214025 | 21 | 0 | 0.0 | 0.0 | 0.00 | 0.00 | 0.00 | 58 | 1008.3 |
| 20260509213826 | 21 | 267 | 0.0 | 0.0 | 0.00 | 0.00 | 0.00 | 55 | 1007.9 |
| 20260509213525 | 21 | 0 | 0.0 | 3.2 | 0.00 | 0.00 | 0.00 | 56 | 1008.3 |
| 20260509213335 | 21 | 267 | 0.0 | 3.2 | 0.00 | 0.00 | 0.00 | 59 | 1008.1 |
| 20260509213049 | 21 | 0 | 0.0 | 3.2 | 0.00 | 0.00 | 0.00 | 57 | 1008.3 |
| 20260509212822 | 21 | 267 | 0.0 | 3.2 | 0.00 | 0.00 | 0.00 | 57 | 1008.1 |
| 20260509212525 | 21 | 0 | 0.0 | 3.2 | 0.00 | 0.00 | 0.00 | 55 | 1008.5 |
| 20260509212327 | 21 | 188 | 0.0 | 3.2 | 0.00 | 0.00 | 0.00 | 56 | 1008.2 |
| 20260509212025 | 21 | 0 | 0.0 | 3.2 | 0.00 | 0.00 | 0.00 | 56 | 1008.5 |
| 20260509211832 | 21 | 329 | 0.0 | 3.2 | 0.00 | 0.00 | 0.00 | 56 | 1008.1 |
| 20260509211608 | 21 | 0 | 0.0 | 3.2 | 0.00 | 0.00 | 0.00 | 56 | 1008.4 |
| 20260509211323 | 21 | 235 | 0.0 | 3.2 | 0.00 | 0.00 | 0.00 | 56 | 1008.1 |
| 20260509211026 | 21 | 307 | 0.0 | 8.0 | 0.00 | 0.00 | 0.00 | 59 | 1008.4 |
| 20260509210848 | 21 | 196 | 0.0 | 8.0 | 0.00 | 0.00 | 0.00 | 57 | 1008.1 |
| 20260509210523 | 21 | 0 | 0.0 | 8.0 | 0.00 | 0.00 | 0.00 | 55 | 1008.5 |
| 20260509210334 | 21 | 225 | 0.0 | 8.0 | 0.00 | 0.00 | 0.00 | 56 | 1008.0 |
| 20260509210044 | 21 | 0 | 0.0 | 8.0 | 0.00 | 0.00 | 0.00 | 55 | 1008.4 |
| 20260509205819 | 21 | 276 | 0.0 | 3.2 | 0.00 | 0.00 | 0.00 | 57 | 1008.2 |
| 20260509205525 | 21 | 0 | 0.0 | 6.4 | 0.00 | 0.00 | 0.00 | 55 | 1008.5 |
| 20260509205322 | 21 | 268 | 0.0 | 6.4 | 0.00 | 0.00 | 0.00 | 56 | 1008.1 |
| 20260509205025 | 21 | 0 | 0.0 | 11.3 | 0.00 | 0.00 | 0.00 | 57 | 1008.4 |
| 20260509204847 | 21 | 181 | 0.0 | 6.4 | 0.00 | 0.00 | 0.00 | 57 | 1008.1 |
| 20260509204557 | 21 | 1 | 0.0 | 11.3 | 0.00 | 0.00 | 0.00 | 56 | 1008.4 |
| 20260509204331 | 21 | 208 | 0.0 | 11.3 | 0.00 | 0.00 | 0.00 | 56 | 1008.0 |
| 20260509204028 | 21 | 0 | 0.0 | 11.3 | 0.00 | 0.00 | 0.00 | 54 | 1008.3 |
| 20260509203815 | 21 | 175 | 0.0 | 8.0 | 0.00 | 0.00 | 0.00 | 56 | 1008.0 |
| 20260509203523 | 21 | 0 | 0.0 | 8.0 | 0.00 | 0.00 | 0.00 | 56 | 1008.2 |
| 20260509203323 | 21 | 250 | 0.0 | 4.8 | 0.00 | 0.00 | 0.00 | 55 | 1007.9 |
| 20260509203049 | 21 | 275 | 0.0 | 16.1 | 0.00 | 0.00 | 0.00 | 56 | 1008.2 |
| 20260509202830 | 21 | 200 | 0.0 | 14.5 | 0.00 | 0.00 | 0.00 | 56 | 1007.9 |
| 20260509202522 | 21 | 0 | 0.0 | 17.7 | 0.00 | 0.00 | 0.00 | 57 | 1008.1 |
| 20260509202355 | 21 | 198 | 1.6 | 16.1 | 0.00 | 0.00 | 0.00 | 56 | 1007.8 |
| 20260509202024 | 21 | 0 | 3.2 | 17.7 | 0.00 | 0.00 | 0.00 | 56 | 1008.2 |
| 20260509201818 | 21 | 152 | 3.2 | 12.9 | 0.00 | 0.00 | 0.00 | 59 | 1007.9 |
| 20260509201537 | 21 | 0 | 0.0 | 19.3 | 0.00 | 0.00 | 0.00 | 57 | 1008.2 |
| 20260509201322 | 21 | 344 | 1.6 | 12.9 | 0.00 | 0.00 | 0.00 | 58 | 1007.9 |
| 20260509201025 | 21 | 176 | 1.6 | 19.3 | 0.00 | 0.00 | 0.00 | 58 | 1008.3 |
| 20260509200849 | 21 | 206 | 1.6 | 17.7 | 0.00 | 0.00 | 0.00 | 59 | 1008.0 |
| 20260509200527 | 21 | 198 | 6.4 | 19.3 | 0.00 | 0.00 | 0.00 | 60 | 1008.4 |
| 20260509200316 | 21 | 138 | 6.4 | 14.5 | 0.00 | 0.00 | 0.00 | 61 | 1008.2 |
| 20260509200039 | 21 | 153 | 0.0 | 8.0 | 0.00 | 0.00 | 0.00 | 59 | 1008.5 |
| 20260509195824 | 21 | 200 | 0.0 | 8.0 | 0.00 | 0.00 | 0.00 | 57 | 1008.3 |
| 20260509195523 | 21 | 218 | 0.0 | 9.7 | 0.00 | 0.00 | 0.00 | 57 | 1008.6 |
| 20260509195332 | 21 | 206 | 1.6 | 9.7 | 0.00 | 0.00 | 0.00 | 60 | 1008.3 |
| 20260509195024 | 21 | 188 | 0.0 | 11.3 | 0.00 | 0.00 | 0.00 | 62 | 1008.7 |
| 20260509194818 | 21 | 167 | 0.0 | 9.7 | 0.00 | 0.00 | 0.00 | 60 | 1008.4 |
| 20260509194545 | 21 | 189 | 3.2 | 11.3 | 0.00 | 0.00 | 0.00 | 62 | 1008.9 |
| 20260509194322 | 21 | 108 | 1.6 | 6.4 | 0.00 | 0.00 | 0.00 | 61 | 1008.4 |
| 20260509194026 | 20 | 260 | 0.0 | 12.9 | 0.00 | 0.00 | 0.00 | 59 | 1008.9 |
| 20260509193830 | 21 | 244 | 0.0 | 11.3 | 0.00 | 0.00 | 0.00 | 60 | 1008.5 |
| 20260509193526 | 20 | 0 | 0.0 | 12.9 | 0.00 | 0.00 | 0.00 | 61 | 1009.0 |
| 20260509193334 | 21 | 175 | 0.0 | 11.3 | 0.00 | 0.00 | 0.00 | 61 | 1008.5 |
| 20260509193043 | 20 | 209 | 0.0 | 8.0 | 0.00 | 0.00 | 0.00 | 59 | 1009.2 |
| 20260509192818 | 21 | 140 | 0.0 | 4.8 | 0.00 | 0.00 | 0.00 | 62 | 1008.8 |
| 20260509192523 | 20 | 0 | 0.0 | 1.6 | 0.00 | 0.00 | 0.00 | 62 | 1009.3 |
| 20260509192323 | 21 | 333 | 0.0 | 1.6 | 0.00 | 0.00 | 0.00 | 62 | 1008.8 |
| 20260509192023 | 20 | 0 | 0.0 | 1.6 | 0.00 | 0.00 | 0.00 | 60 | 1009.3 |
| 20260509191847 | 20 | 342 | 0.0 | 1.6 | 0.00 | 0.00 | 0.00 | 61 | 1008.9 |
| 20260509191537 | 20 | 0 | 0.0 | 4.8 | 0.00 | 0.00 | 0.00 | 59 | 1009.4 |
| 20260509191318 | 20 | 345 | 0.0 | 4.8 | 0.00 | 0.00 | 0.00 | 60 | 1008.9 |
| 20260509191025 | 20 | 0 | 0.0 | 4.8 | 0.00 | 0.00 | 0.00 | 59 | 1009.5 |
| 20260509190822 | 20 | 344 | 1.6 | 4.8 | 0.00 | 0.00 | 0.00 | 61 | 1009.0 |
| 20260509190525 | 20 | 0 | 0.0 | 3.2 | 0.00 | 0.00 | 0.00 | 62 | 1009.6 |
| 20260509190326 | 20 | 207 | 0.0 | 3.2 | 0.00 | 0.00 | 0.00 | 60 | 1009.1 |
| 20260509190045 | 20 | 0 | 0.0 | 1.6 | 0.00 | 0.00 | 0.00 | 64 | 1009.4 |
| 20260509185831 | 20 | 144 | 0.0 | 0.0 | 0.00 | 0.00 | 0.00 | 64 | 1008.9 |
| 20260509185523 | 20 | 0 | 0.0 | 0.0 | 0.00 | 0.00 | 0.00 | 62 | 1009.4 |
| 20260509185334 | 20 | 11 | 0.0 | 0.0 | 0.00 | 0.00 | 0.00 | 62 | 1008.8 |
| 20260509185022 | 20 | 0 | 0.0 | 0.0 | 0.00 | 0.00 | 0.00 | 63 | 1009.3 |
| 20260509184839 | 20 | 11 | 0.0 | 0.0 | 0.00 | 0.00 | 0.00 | 64 | 1008.8 |
| 20260509184546 | 20 | 0 | 0.0 | 0.0 | 0.00 | 0.00 | 0.00 | 61 | 1009.6 |
| 20260509184324 | 20 | 11 | 0.0 | 0.0 | 0.00 | 0.00 | 0.00 | 64 | 1009.1 |
| 20260509184022 | 20 | 0 | 0.0 | 0.0 | 0.00 | 0.00 | 0.00 | 62 | 1009.7 |
| 20260509183832 | 20 | 12 | 0.0 | 0.0 | 0.00 | 0.00 | 0.00 | 64 | 1009.1 |
| 20260509183526 | 19 | 0 | 0.0 | 0.0 | 0.00 | 0.00 | 0.00 | 63 | 1009.6 |
| 20260509183335 | 20 | 14 | 0.0 | 0.0 | 0.00 | 0.00 | 0.00 | 63 | 1009.1 |
| 20260509183041 | 19 | 0 | 0.0 | 0.0 | 0.00 | 0.00 | 0.00 | 61 | 1009.8 |
| 20260509182820 | 20 | 14 | 0.0 | 0.0 | 0.00 | 0.00 | 0.00 | 63 | 1009.3 |
| 20260509182524 | 19 | 0 | 0.0 | 0.0 | 0.00 | 0.00 | 0.00 | 61 | 1009.6 |
| 20260509182328 | 20 | 16 | 0.0 | 0.0 | 0.00 | 0.00 | 0.00 | 62 | 1009.0 |
| 20260509182023 | 19 | 0 | 0.0 | 0.0 | 0.00 | 0.00 | 0.00 | 63 | 1009.7 |
| 20260509181816 | 19 | 16 | 0.0 | 0.0 | 0.00 | 0.00 | 0.00 | 64 | 1009.2 |
| 20260509181545 | 19 | 0 | 0.0 | 0.0 | 0.00 | 0.00 | 0.00 | 63 | 1009.8 |
| 20260509181321 | 19 | 16 | 0.0 | 0.0 | 0.00 | 0.00 | 0.00 | 66 | 1009.4 |
| 20260509181023 | 19 | 0 | 0.0 | 0.0 | 0.00 | 0.00 | 0.00 | 65 | 1010.1 |
| 20260509180847 | 19 | 16 | 0.0 | 0.0 | 0.00 | 0.00 | 0.00 | 65 | 1009.6 |
| 20260509180527 | 19 | 0 | 0.0 | 0.0 | 0.00 | 0.00 | 0.00 | 66 | 1010.1 |
| 20260509180349 | 19 | 16 | 0.0 | 0.0 | 0.00 | 0.00 | 0.00 | 64 | 1009.7 |
| 20260509180041 | 19 | 0 | 0.0 | 0.0 | 0.00 | 0.00 | 0.00 | 65 | 1010.4 |
| 20260509175833 | 19 | 16 | 0.0 | 0.0 | 0.00 | 0.00 | 0.00 | 66 | 1009.9 |
| 20260509175526 | 19 | 0 | 0.0 | 0.0 | 0.00 | 0.00 | 0.00 | 64 | 1010.4 |
| 20260509175317 | 19 | 16 | 0.0 | 0.0 | 0.00 | 0.00 | 0.00 | 66 | 1009.9 |
| 20260509175025 | 19 | 0 | 0.0 | 0.0 | 0.00 | 0.00 | 0.00 | 63 | 1010.4 |
| 20260509174822 | 19 | 360 | 0.0 | 0.0 | 0.00 | 0.00 | 0.00 | 64 | 1010.0 |
| 20260509174540 | 19 | 0 | 0.0 | 3.2 | 0.00 | 0.00 | 0.00 | 64 | 1010.4 |
| 20260509174328 | 19 | 3 | 0.0 | 3.2 | 0.00 | 0.00 | 0.00 | 63 | 1010.0 |
| 20260509174030 | 19 | 0 | 0.0 | 3.2 | 0.00 | 0.00 | 0.00 | 64 | 1010.5 |
| 20260509173832 | 20 | 1 | 0.0 | 3.2 | 0.00 | 0.00 | 0.00 | 64 | 1010.0 |
| 20260509173525 | 19 | 0 | 0.0 | 1.6 | 0.00 | 0.00 | 0.00 | 62 | 1010.5 |
| 20260509173319 | 19 | 69 | 0.0 | 1.6 | 0.00 | 0.00 | 0.00 | 64 | 1010.0 |
| 20260509173037 | 19 | 0 | 0.0 | 0.0 | 0.00 | 0.00 | 0.00 | 64 | 1010.6 |
| 20260509172823 | 19 | 337 | 0.0 | 0.0 | 0.00 | 0.00 | 0.00 | 64 | 1010.1 |
| 20260509172529 | 19 | 0 | 0.0 | 0.0 | 0.00 | 0.00 | 0.00 | 63 | 1010.6 |
| 20260509172327 | 19 | 337 | 0.0 | 0.0 | 0.00 | 0.00 | 0.00 | 63 | 1010.1 |